Home   Weather   Dublin   Past weeks
Flag for Ireland

Past Weather in Dublin, Ireland — Yesterday and Last 2 Weeks

Now
50 °F

Passing clouds.


Feels Like: 47 °F
Forecast: 43 / 36 °F
Wind: 7 mph from Southwest

Location: Dublin Airport

Current Time: Oct 24, 2019 at 3:10:16 am

Latest Report: Oct 24, 2019 at 2:30 am


Visibility: N/A

Pressure: 29.56 "Hg

Humidity: 94%

Dew Point: 48 °F

Location of DublinLocation

Past Weather in Dublin — Graph

°F

Dublin Temperature Yesterday

Maximum temperature yesterday: 55 °F (at 12:00 pm)
Minimum temperature yesterday: 50 °F (at 12:00 am)
Average temperature yesterday: 53 °F

High & Low Weather Summary for the Past Weeks

 TemperatureHumidityPressure
High61 °F (Oct 10, 3:30 pm)100% (Oct 10, 6:00 pm)30.27 "Hg (Oct 10, 6:00 pm)
Low34 °F (Oct 21, 7:00 am)59% (Oct 10, 3:30 pm)29.24 "Hg (Oct 18, 3:00 pm)
Average49 °F84%29.67 "Hg
* Reported Oct 9 2:00 am — Oct 24 2:00 am, Dublin. Weather by CustomWeather, © 2019

Note: Actual official high and low records may vary slightly from our data, if they occured in-between our weather recording intervals... More about our weather records

Advertising

Dublin Weather History for the Previous 24 Hours

Scroll right to see more
 ConditionsComfort  
Time TempWeatherWind HumidityBarometerVisibility
2:00 am
Thu, Oct 24
50 °FPassing clouds.6 mph94%29.56 "HgN/A
1:30 am50 °FPassing clouds.7 mph100%29.56 "HgN/A
1:00 am52 °FPassing clouds.5 mph94%29.56 "HgN/A
12:30 am52 °FPartly cloudy.6 mph94%29.56 "HgN/A
12:00 am52 °FPartly cloudy.8 mph94%29.56 "HgN/A
11:30 pm
Wed, Oct 23
54 °FPassing clouds.7 mph94%29.59 "HgN/A
11:00 pm54 °FLight rain. Partly cloudy.12 mph94%29.56 "HgN/A
10:30 pm55 °FPartly cloudy.13 mph82%29.56 "HgN/A
10:00 pm55 °FPartly cloudy.15 mph82%29.59 "HgN/A
9:30 pm55 °FPassing clouds.14 mph77%29.59 "HgN/A
9:00 pm54 °FPassing clouds.12 mph82%29.59 "HgN/A
8:30 pm54 °FLight rain. Passing clouds.14 mph82%29.59 "HgN/A
8:00 pm54 °FLight rain. Passing clouds.14 mph77%29.59 "HgN/A
7:30 pm54 °FLight rain. Passing clouds.12 mph77%29.59 "HgN/A
7:00 pm54 °FLight rain. Passing clouds.14 mph77%29.62 "HgN/A
6:30 pm54 °FLight rain. Passing clouds.9 mph77%29.62 "HgN/A
6:00 pm54 °FLight rain. Partly sunny.9 mph72%29.62 "HgN/A
5:30 pm54 °FLight rain. Partly sunny.10 mph72%29.65 "HgN/A
5:00 pm55 °FLight rain. Partly sunny.10 mph67%29.65 "HgN/A
4:30 pm55 °FPartly sunny.15 mph67%29.65 "HgN/A
4:00 pm55 °FPartly sunny.10 mph63%29.68 "HgN/A
3:30 pm55 °FPartly sunny.10 mph63%29.68 "HgN/A
3:00 pm55 °FPartly sunny.13 mph67%29.68 "HgN/A
2:30 pm55 °FBroken clouds.13 mph67%29.71 "HgN/A
2:00 pm55 °FBroken clouds.12 mph67%29.71 "HgN/A
1:30 pm55 °FBroken clouds.14 mph67%29.71 "HgN/A
1:00 pm55 °FBroken clouds.14 mph67%29.74 "HgN/A
12:30 pm55 °FBroken clouds.14 mph72%29.74 "HgN/A
12:00 pm55 °FBroken clouds.12 mph67%29.77 "HgN/A
11:30 am54 °FBroken clouds.14 mph72%29.80 "HgN/A
11:00 am54 °FBroken clouds.8 mph72%29.80 "HgN/A
10:30 am54 °FBroken clouds.10 mph72%29.83 "HgN/A
10:00 am52 °FBroken clouds.15 mph77%29.83 "HgN/A
9:30 am52 °FPartly sunny.16 mph77%29.83 "HgN/A
9:00 am52 °FBroken clouds.15 mph77%29.86 "HgN/A
8:30 am52 °FBroken clouds.13 mph77%29.86 "HgN/A
8:00 am52 °FPartly cloudy.12 mph72%29.86 "HgN/A
7:30 am52 °FPartly cloudy.6 mph72%29.86 "HgN/A
7:00 am52 °FPartly cloudy.6 mph77%29.86 "HgN/A
6:30 am52 °FPartly cloudy.9 mph77%29.89 "HgN/A
6:00 am52 °FPartly cloudy.9 mph77%29.89 "HgN/A
5:30 am52 °FPartly cloudy.10 mph82%29.89 "HgN/A
5:00 am52 °FPartly cloudy.7 mph82%29.89 "HgN/A
4:30 am52 °FPartly cloudy.8 mph82%29.92 "HgN/A
4:00 am52 °FPartly cloudy.6 mph82%29.92 "HgN/A
3:30 am52 °FPartly cloudy.6 mph82%29.95 "HgN/A
3:00 am52 °FPartly cloudy.9 mph82%29.95 "HgN/A
Weather by CustomWeather, © 2019

See weather overview